Date String (YYYY-MM-DD hh:mm:ss) UTC,Instrument flags,absolute air pressure of the measurement (hPa),sample flow rate (lpm),inlet stack bypass flow (lpm),air temperature of the measurement (°C),ambient temperature measured by the external sensor (°C),aerosol sample conditioner tube jacket temperature (°C),OPC LED temperature (°C),internal box temperature (°C),relative humidity of the measurement (%),span deviation,mass concentration of particles derived from Lorenz-Mie calculation of OPC scattering (μg/m³),mass concentration of particles derived from Lorenz-Mie calculation of OPC scattering (μg/m³),mass concentration of particles derived from Lorenz-Mie calculation of OPC scattering (μg/m³)
DateTimeUTC,F1_M11,P_M11,Q1_M11,Q2_M11,T1_M11,T2_M11,T3_M11,T4_M11,T5_M11,U1_M11,ZSPAN_M11,X0_M11,X2_M11,X1_M11
2023-10-21 18:00:00,SystemResetWarning,0829.1,5.00,000.00,028.5,027.1,000.0,036.9,030.3,12.4,0000.0,0008.45,0002.66,0001.66
2023-10-21 18:01:00,SystemResetWarning,0829.1,5.00,000.00,028.6,027.3,000.0,036.9,030.4,12.4,0000.0,0008.73,0002.58,0001.62
2023-10-21 18:02:00,SystemResetWarning,0829.1,5.00,000.00,028.6,027.4,000.0,037.0,030.4,12.3,0000.0,0008.69,0002.48,0001.58
2023-10-21 18:03:00,SystemResetWarning,0829.1,4.99,000.00,028.6,027.1,000.0,037.0,030.5,12.5,0000.0,0008.57,0002.39,0001.55
2023-10-21 18:04:00,SystemResetWarning,0829.1,5.00,000.00,028.6,025.3,000.0,036.9,030.3,12.7,0000.0,0008.91,0002.38,0001.50
2023-10-21 18:05:00,SystemResetWarning,0829.1,5.02,000.00,028.5,024.5,000.0,036.8,030.1,12.9,0000.0,0009.68,0002.41,0001.47
2023-10-21 18:06:00,SystemResetWarning,0829.1,5.00,000.00,028.5,024.7,000.0,036.8,030.0,12.6,0000.0,0010.08,0002.39,0001.45
2023-10-21 18:07:00,SystemResetWarning,0829.0,5.00,000.00,028.4,025.1,000.0,036.8,029.9,12.6,0000.0,0010.08,0002.36,0001.42
2023-10-21 18:08:00,SystemResetWarning,0829.1,5.00,000.00,028.4,025.5,000.0,036.8,029.9,12.6,0000.0,0010.07,0002.37,0001.41
2023-10-21 18:09:00,SystemResetWarning,0829.0,4.99,000.00,028.4,025.9,000.0,036.9,030.0,12.5,0000.0,0009.67,0002.41,0001.40
2023-10-21 18:10:00,SystemResetWarning,0829.0,4.99,000.00,028.4,026.3,000.0,036.9,030.0,12.4,0000.0,0009.75,0002.45,0001.39
2023-10-21 18:11:00,SystemResetWarning,0829.0,4.99,000.00,028.4,026.6,000.0,036.9,030.1,12.2,0000.0,0009.78,0002.48,0001.38
2023-10-21 18:12:00,SystemResetWarning,0829.0,5.00,000.00,028.4,026.8,000.0,036.9,030.2,12.3,0000.0,0009.21,0002.49,0001.37
2023-10-21 18:13:00,SystemResetWarning,0829.0,5.00,000.00,028.5,027.1,000.0,036.9,030.2,12.1,0000.0,0009.35,0002.50,0001.37
2023-10-21 18:14:00,SystemResetWarning,0829.0,5.01,000.00,028.5,027.2,000.0,036.9,030.3,12.4,0000.0,0009.37,0002.50,0001.36
2023-10-21 18:15:00,SystemResetWarning,0829.0,5.01,000.00,028.6,027.4,000.0,036.9,030.4,12.4,0000.0,0009.46,0002.54,0001.37
2023-10-21 18:16:00,SystemResetWarning,0829.1,5.00,000.00,028.6,027.4,000.0,036.9,030.4,12.4,0000.0,0009.42,0002.57,0001.37
2023-10-21 18:17:00,SystemResetWarning,0829.0,4.98,000.00,028.6,025.9,000.0,036.9,030.3,12.4,0000.0,0009.48,0002.60,0001.37
2023-10-21 18:18:00,SystemResetWarning,0829.0,5.02,000.00,028.5,024.6,000.0,036.8,030.1,12.5,0000.0,0009.53,0002.62,0001.37
2023-10-21 18:19:00,SystemResetWarning,0829.0,5.01,000.00,028.5,024.6,000.0,036.8,030.0,12.6,0000.0,0010.05,0002.63,0001.36
2023-10-21 18:20:00,SystemResetWarning,0829.0,4.99,000.00,028.4,024.9,000.0,036.8,029.9,12.6,0000.0,0009.73,0002.62,0001.35
2023-10-21 18:21:00,SystemResetWarning,0829.0,5.00,000.00,028.3,025.3,000.0,036.8,029.9,12.6,0000.0,0009.37,0002.59,0001.33
2023-10-21 18:22:00,SystemResetWarning,0829.0,5.01,000.00,028.3,025.7,000.0,036.8,029.9,12.6,0000.0,0009.27,0002.61,0001.32
2023-10-21 18:23:00,SystemResetWarning,0829.0,5.00,000.00,028.3,026.1,000.0,036.8,030.0,12.5,0000.0,0009.17,0002.56,0001.31
2023-10-21 18:24:00,SystemResetWarning,0829.1,5.00,000.00,028.4,026.4,000.0,036.8,030.1,12.4,0000.0,0010.13,0002.57,0001.30
2023-10-21 18:25:00,SystemResetWarning,0829.0,5.00,000.00,028.4,026.7,000.0,036.8,030.2,12.5,0000.0,0010.73,0002.62,0001.28
2023-10-21 18:26:00,SystemResetWarning,0829.0,5.00,000.00,028.4,027.0,000.0,036.8,030.2,12.3,0000.0,0010.78,0002.63,0001.28
2023-10-21 18:27:00,SystemResetWarning,0829.0,5.00,000.00,028.5,027.2,000.0,036.9,030.3,12.2,0000.0,0010.61,0002.58,0001.27
2023-10-21 18:28:00,SystemResetWarning,0829.0,5.01,000.00,028.5,027.4,000.0,036.9,030.4,12.2,0000.0,0009.98,0002.48,0001.26
2023-10-21 18:29:00,SystemResetWarning,0828.9,5.00,000.00,028.6,027.5,000.0,036.9,030.4,12.1,0000.0,0010.24,0002.49,0001.25
2023-10-21 18:30:00,SystemResetWarning,0828.9,4.98,000.00,028.6,026.5,000.0,036.9,030.4,12.5,0000.0,0010.90,0002.49,0001.25
2023-10-21 18:31:00,SystemResetWarning,0829.0,5.01,000.00,028.5,024.8,000.0,036.8,030.2,12.8,0000.0,0011.59,0002.47,0001.24
2023-10-21 18:32:00,SystemResetWarning,0828.9,5.01,000.00,028.5,024.5,000.0,036.8,030.1,12.9,0000.0,0013.06,0002.51,0001.25
2023-10-21 18:33:00,SystemResetWarning,0828.9,4.99,000.00,028.4,024.8,000.0,036.8,029.9,12.9,0000.0,0013.07,0002.46,0001.26
2023-10-21 18:34:00,SystemResetWarning,0828.9,5.00,000.00,028.3,025.2,000.0,036.8,029.9,12.9,0000.0,0013.13,0002.43,0001.27
2023-10-21 18:35:00,SystemResetWarning,0828.9,5.01,000.00,028.3,025.6,000.0,036.8,029.9,12.7,0000.0,0012.17,0002.42,0001.26
2023-10-21 18:36:00,SystemResetWarning,0829.0,5.00,000.00,028.3,026.0,000.0,036.8,030.0,12.7,0000.0,0011.24,0002.41,0001.26
2023-10-21 18:37:00,SystemResetWarning,0829.0,5.00,000.00,028.3,026.3,000.0,036.8,030.0,12.8,0000.0,0010.93,0002.40,0001.25
2023-10-21 18:38:00,SystemResetWarning,0828.9,5.00,000.00,028.4,026.7,000.0,036.8,030.1,12.7,0000.0,0010.71,0002.36,0001.24
2023-10-21 18:39:00,SystemResetWarning,0828.9,5.00,000.00,028.4,026.9,000.0,036.8,030.2,12.7,0000.0,0010.71,0002.41,0001.24
2023-10-21 18:40:00,SystemResetWarning,0828.9,5.00,000.00,028.4,027.1,000.0,036.8,030.2,12.7,0000.0,0010.37,0002.36,0001.24
2023-10-21 18:41:00,SystemResetWarning,0828.9,5.00,000.00,028.5,027.3,000.0,036.9,030.3,12.4,0000.0,0010.20,0002.38,0001.23
2023-10-21 18:42:00,SystemResetWarning,0828.9,4.99,000.00,028.5,027.4,000.0,036.9,030.4,12.5,0000.0,0009.78,0002.39,0001.23
2023-10-21 18:43:00,SystemResetWarning,0828.9,4.99,000.00,028.6,026.1,000.0,036.8,030.3,12.5,0000.0,0008.45,0002.41,0001.22
2023-10-21 18:44:00,SystemResetWarning,0828.8,5.00,000.00,028.5,024.6,000.0,036.8,030.1,12.3,0000.0,0008.27,0002.41,0001.21
2023-10-21 18:45:00,SystemResetWarning,0828.8,5.01,000.00,028.4,024.6,000.0,036.7,030.0,12.4,0000.0,0009.42,0002.48,0001.22
2023-10-21 18:46:00,SystemResetWarning,0828.8,5.00,000.00,028.3,024.9,000.0,036.8,029.8,12.6,0000.0,0010.57,0002.54,0001.24
2023-10-21 18:47:00,SystemResetWarning,0828.7,5.00,000.00,028.3,025.3,000.0,036.8,029.8,12.6,0000.0,0010.85,0002.55,0001.25
2023-10-21 18:48:00,SystemResetWarning,0828.7,5.00,000.00,028.3,025.7,000.0,036.8,029.9,12.6,0000.0,0011.30,0002.63,0001.26
2023-10-21 18:49:00,SystemResetWarning,0828.7,4.99,000.00,028.3,026.2,000.0,036.8,030.0,12.6,0000.0,0011.44,0002.63,0001.26
2023-10-21 18:50:00,SystemResetWarning,0828.7,4.99,000.00,028.3,026.5,000.0,036.8,030.1,12.9,0000.0,0011.35,0002.61,0001.26
2023-10-21 18:51:00,SystemResetWarning,0828.7,5.01,000.00,028.4,026.8,000.0,036.8,030.2,12.7,0000.0,0011.81,0002.65,0001.26
2023-10-21 18:52:00,SystemResetWarning,0828.7,5.00,000.00,028.4,027.1,000.0,036.8,030.2,12.6,0000.0,0011.80,0002.62,0001.26
2023-10-21 18:53:00,SystemResetWarning,0828.6,5.00,000.00,028.5,027.3,000.0,036.8,030.3,12.5,0000.0,0012.06,0002.64,0001.27
2023-10-21 18:54:00,SystemResetWarning,0828.6,5.00,000.00,028.5,027.2,000.0,036.8,030.4,12.2,0000.0,0012.88,0002.75,0001.28
2023-10-21 18:55:00,SystemResetWarning,0828.6,4.99,000.00,028.5,025.6,000.0,036.8,030.2,12.2,0000.0,0013.11,0002.76,0001.28
2023-10-21 18:56:00,SystemResetWarning,0828.6,5.02,000.00,028.4,024.4,000.0,036.7,030.0,12.1,0000.0,0013.06,0002.81,0001.28
2023-10-21 18:57:00,SystemResetWarning,0828.6,5.00,000.00,028.3,024.6,000.0,036.7,029.9,12.0,0000.0,0013.78,0002.90,0001.28
2023-10-21 18:58:00,SystemResetWarning,0828.5,4.99,000.00,028.3,025.0,000.0,036.7,029.8,12.0,0000.0,0014.46,0003.02,0001.29
2023-10-21 18:59:00,SystemResetWarning,0828.5,5.00,000.00,028.2,025.4,000.0,036.7,029.9,12.1,0000.0,0014.89,0003.02,0001.28
